EHI
0 0 0 0 0 0 0 0 0 0 0 0 0 0 0 0 0 0 0 0 0 0 0 0 0 0 0 0 0 0 0 0 0 0 0 0 0 0 0 0 0 0 0 0
0 0 0 0 0 0 0 0 0 0 0 0 0 0 0 0 0 0 0 0 0 0 0 0 0 0 0 0 0 0 0 0 0 0 0 0 0 0 0 0 0 0 0 0
0 0 0 0 0 0 0 0 0 0 0 0 0 0 0 0 0 0 0 0 0 0 0 0 0 0 0 0 0 0 0 0 0 0 0 0 0 0 0 0 0 0 0 0
0 0 0 0 0 0 0 0 0 0 0 0 0 0 0 0 0 0 0 0 0 0 0 0 0 0 0 0 0 0 0 0 0 0 0 0 0 0 0 0 0 0 0 0
0 0 0 0 0 0 0 0 0 0 0 0 0 0 0 0 0 0 0 0 0 0 0 0 0 0 0 0 0 0 0 0 0 0 0 0 0 0 0 0 0 0 0 0
0 0 0 0 0 0 0 0 0 0 0 0 0 0 0 0 0 0 0 0 0 0 0 0 0 0 0 0 0 0 0 0 0 0 0 0 0 0 0 0 0 0 0 0
0 0 0 0 0 0 0 0 0 0 0 0 0 0 0 0 0 0 0 0 0 0 0 0 0 0 0 0 0 0 0 0 0 0 0 0 0 0 0 0 0 0 0 0
0 0 0 0 0 0 0 0 0 0 0 0 0 0 0 0 0 0 0 0 0 0 0 0 0 0 0 0 0 0 0 0 0 0 0 0 0 0 0 0 0 0 0 0
0 0 0 0 0 0 0 0 0 0 0 0 0 0 0 0 0 0 0 0 0 0 0 0 0 0 0 0 0 0 0 0 0 0 0 0 0 0 0 0 0 0 0 0
0 0 0 0 0 0 0 0 0 0 0 0 0 0 0 0 0 0 0 0 0 0 0 0 0 0 0 0 0 0 0 0 0 0 0 0 0 0 0 0 0 0 0 0
0 0 0 0 0 0 0 0 0 0 0 0 0 0 0 0 0 0 0 0 0 0 0 0 0 0 0 0 0 0 0 0 0 0 0 0 0 0 0 0 0 0 0 0
0 0 0 0 0 0 0 0 0 0 0 0 0 0 0 0 0 0 0 0 0 0 0 0 0 0 0 0 0 0 0 0 0 0 0 0 0 0 0 0 0 0 0 0
0 0 0 0 0 0 0 0 0 0 0 0 0 0 0 0 0 0 0 0 0 0 0 0 0 0 0 0 0 0 0 0 0 0 0 0 0 0 0 0 0 0 0 0
0 0 0 0 0 0 0 0 0 0 0 0 0 0 0 0 0 0 0 0 0 0 0 0 0 0 0 0 0 0 0 0 0 0 0 0 0 0 0 0 0 0 0 0
0 0 0 0 0 0 0 0 0 0 0 0 0 0 0 0 0 0 0 0 0 0 0 0 0 0 0 0 0 0 0 0 0 0 0 0 0 0 0 0 0 0 0 0
0 0 0 0 0 0 0 0 0 0 0 0 0 0 0 0 0 0 0 0 0 0 0 0 0 0 0 0 0 0 0 0 0 0 0 0 0 0 0 0 0 0 0 0
0 0 0 0 0 0 0 0 0 0 0 0 0 0 0 0 0 0 0 0 0 0 0 0 0 0 0 0 0 0 0 0 0 0 0 0 0 0 0 0 0 0 0 0
0 0 0 0 0 0 0 0 0 0 0 0 0 0 0 0 0 0 0 0 0 0 0 0 0 0 0 0 0 0 0 0 0 0 0 0 0 0 0 0 0 0 0 0
0 0 0 0 0 0 0 0 0 0 0 0 0 0 0 0 0 0 0 0 0 0 0 0 0 0 0 0 0 0 0 0 0 0 0 0 0 0 0 0 0 0 0 0
0 0 0 0 0 0 0 0 0 0 0 0 0 0 0 0 0 0 0 0 0 0 0 0 0 0 0 0 0 0 0 0 0 0 0 0 0 0 0 0 0 0 0 0
0 0 0 0 0 0 0 0 0 0 0 0 0 0 0 0 0 0 0 0 0 0 0 0 0 0 0 0 0 0 0 0 0 0 0 0 0 0 0 0 0 0 0 0
0 0 0 0 0 0 0 0 0 0 0 0 0 0 0 0 0 0 0 0 0 0 0 0 0 0 0 0 0 0 0 0 0 0 0 0 0 0 0 0 0 0 0 0
0 0 0 0 0 0 0 0 0 0 0 0 0 0 0 0 0 0 0 0 0 0 0 0 0 0 0 0 0 0 0 0 0 0 0 0 0 0 0 0 0 0 0 0
0 0 0 0 0 0 0 0 0 0 0 0 0 0 0 0 0 0 0 0 0 0 0 0 0 0 0 0 0 0 0 0 0 0 0 0 0 0 0 0 0 0 0 0
0 0 0 0 0 0 0 0 0 0 0 0 0 0 0 0 0 0 0 0 0 0 0 0 0 0 0 0 0 0 0 0 0 0 0 0 0 0 0 0 0 0 0 0
0 0 0 0 0 0 0 0 0 0 0 0 0 0 0 0 0 0 0 0 0 0 0 0 0 0 0 0 0 0 0 0 0 0 0 0 0 0 0 0 0 0 0 0
Wind_Speed
4 5 12 15 14 7 4 5 6 6 4 5 10 13 11 7 5 6 6 6 8 9 7 5 6 6 6 6 7 7 7 7 6 4 4 4 4 3 3 3 5 5 5 6
2 12 12 5 7 7 7 8 7 5 2 4 6 11 10 8 7 7 8 8 8 7 4 5 5 6 7 8 8 7 8 8 7 5 4 3 3 3 3 3 4 5 6 6
11 5 4 7 7 10 12 11 8 5 2 2 4 9 7 6 6 6 7 7 7 8 8 6 6 7 6 7 8 8 8 8 7 6 4 3 2 2 2 3 3 4 6 6
8 5 3 7 9 10 12 8 6 5 2 4 2 7 7 5 6 7 8 7 7 7 7 6 7 7 8 7 7 8 8 7 7 8 7 7 5 5 4 4 4 5 6 6
7 4 4 8 8 9 6 4 5 5 4 4 4 6 9 2 6 7 7 7 7 6 6 7 7 8 7 7 7 6 7 7 7 7 8 8 5 3 3 4 6 5 5 6
7 4 5 6 4 6 4 3 2 1 2 8 9 7 9 5 7 6 6 6 6 5 5 5 5 5 5 5 6 6 7 6 7 7 7 8 7 6 6 6 6 5 4 4
5 5 3 2 2 2 5 5 2 2 5 8 6 7 10 5 6 6 6 5 4 4 3 3 4 5 5 6 7 7 8 7 7 7 7 7 7 8 8 7 7 6 5 4
4 6 5 4 5 5 7 8 7 7 6 4 4 9 7 3 3 3 3 2 2 2 3 3 4 4 5 6 7 7 8 7 7 7 6 5 6 5 4 5 6 6 5 5
3 6 3 3 3 6 5 6 4 3 1 2 6 5 7 2 2 2 2 1 1 2 3 3 3 3 4 5 6 7 8 7 7 7 6 5 6 5 5 5 5 5 4 5
2 5 5 3 1 3 4 4 3 4 5 5 4 4 4 2 3 3 2 2 2 1 1 2 2 3 3 4 4 5 7 7 7 7 6 5 6 6 5 5 6 5 5 5
1 3 5 2 5 6 4 4 3 3 3 4 4 5 3 5 3 3 4 3 2 1 1 1 1 2 3 3 4 4 5 5 5 5 5 5 5 5 5 5 5 6 5 6
1 1 4 6 4 3 4 6 5 4 4 3 3 6 1 1 1 1 2 1 1 0 0 1 2 2 3 3 3 4 4 5 5 5 5 5 5 5 5 5 5 5 6 6
2 1 2 4 1 1 1 2 3 2 2 3 4 6 3 4 3 2 1 1 1 1 1 1 2 2 2 2 3 3 4 4 4 5 5 5 5 5 5 5 5 5 6 5
3 2 4 5 4 2 5 5 4 4 4 5 7 7 5 5 4 4 2 2 1 0 1 1 1 1 1 2 2 3 3 3 4 5 6 5 5 5 5 5 5 5 6 6
1 2 4 7 6 4 6 7 5 7 8 7 7 7 7 5 4 2 2 2 2 1 1 1 0 0 1 1 1 2 2 3 4 5 5 5 4 4 5 5 5 5 5 5
1 2 3 5 4 4 6 7 6 7 7 8 7 9 5 3 1 1 1 1 1 2 2 1 0 0 1 1 1 1 2 2 4 4 4 4 4 4 4 5 5 5 5 5
2 1 2 3 4 2 4 5 4 3 3 4 8 8 3 3 2 2 2 2 1 1 2 1 1 0 0 1 2 2 2 2 3 3 3 4 4 4 4 5 6 5 5 5
4 2 2 2 2 3 4 2 2 3 3 1 4 4 2 2 2 2 1 1 0 1 1 1 1 1 2 1 2 2 2 3 3 3 3 3 4 4 4 5 5 5 4 4
5 4 2 1 2 4 4 4 4 2 3 3 5 5 4 2 2 3 4 2 1 1 1 1 1 1 2 2 2 3 3 3 3 3 2 3 3 4 4 4 4 4 4 3
1 2 1 1 1 2 4 7 7 1 3 6 5 5 4 3 1 3 4 4 4 4 3 3 3 3 3 2 2 3 3 3 2 2 2 2 3 4 4 4 3 3 3 3
2 0 1 2 2 3 5 9 4 2 4 7 5 4 3 1 2 2 3 4 4 4 4 4 4 4 3 2 3 4 3 2 1 1 2 2 2 3 3 3 3 3 3 3
0 0 1 1 1 4 7 5 3 3 4 5 5 4 3 3 4 4 4 5 5 5 5 5 5 5 4 4 4 4 3 2 3 3 4 3 3 2 3 4 3 3 4 4
1 1 1 1 1 3 4 3 4 4 4 5 4 4 3 4 4 5 5 5 6 5 5 4 6 6 6 5 5 5 3 3 4 5 4 3 3 3 3 3 3 3 3 3
4 3 1 1 3 5 5 6 7 6 5 5 5 4 4 4 4 5 5 5 5 5 5 5 6 6 6 6 6 5 3 3 5 5 4 3 4 3 3 2 2 2 2 2
4 3 2 2 4 5 6 7 7 7 7 7 6 6 5 5 5 5 5 5 5 5 5 5 5 6 6 5 5 5 4 4 5 4 4 3 3 3 3 3 2 2 1 1
3 2 1 2 3 3 5 6 6 6 7 6 6 7 6 6 5 5 5 5 5 5 5 6 6 6 5 5 5 5 5 5 5 4 3 3 3 3 3 3 3 5 3 3
Wind_Direction
183 195 215 213 212 223 191 201 233 241 227 208 237 254 263 262 249 249 250 244 243 244 240 218 202 190 178 175 178 183 173 169 161 162 164 163 173 173 175 177 172 169 160 154
186 231 231 214 211 227 231 238 246 269 229 218 259 266 261 245 236 232 239 243 241 242 240 217 199 187 184 182 180 183 181 176 175 175 171 157 155 170 174 168 168 167 161 155
210 235 199 203 211 216 228 226 230 242 316 278 299 287 255 252 236 239 236 237 233 224 222 212 200 193 184 186 186 188 188 181 177 166 144 123 115 119 147 168 171 169 161 157
239 248 210 209 217 206 236 220 214 222 236 267 203 280 272 249 258 251 247 240 235 232 219 204 197 195 193 190 186 186 183 181 176 167 163 162 171 180 185 173 166 158 155 155
241 219 209 220 222 198 221 182 194 208 213 258 225 247 278 246 258 258 248 240 235 228 211 202 198 197 193 180 177 180 173 174 172 171 172 173 172 169 151 152 153 153 152 153
252 236 213 224 229 201 173 124 130 141 177 245 217 207 270 224 227 246 244 240 233 224 213 205 198 184 177 170 169 170 167 168 168 168 173 177 168 155 153 161 159 156 150 152
279 253 228 176 167 180 158 141 156 212 212 239 176 198 249 234 230 228 242 247 229 207 200 200 188 184 180 175 174 169 165 166 168 168 172 177 169 162 165 166 162 158 154 156
264 264 223 194 186 192 198 178 180 196 211 250 187 220 248 252 255 254 249 242 213 198 194 200 196 189 181 178 175 169 169 167 170 172 174 171 166 162 161 162 157 161 161 158
249 272 287 234 198 166 180 202 193 154 174 229 236 263 298 293 328 327 313 314 242 217 202 201 192 173 168 169 172 172 170 166 170 172 167 166 165 160 154 154 150 153 147 145
229 274 291 284 158 195 179 157 151 178 184 225 246 237 241 278 278 296 295 271 259 222 176 180 178 163 159 159 157 160 165 168 165 166 169 168 168 163 153 151 153 152 147 143
253 249 299 288 201 195 162 176 185 186 194 189 232 255 209 200 218 242 251 243 239 232 179 169 166 146 137 135 140 145 154 153 153 159 159 154 156 150 146 153 158 157 151 152
264 205 269 261 254 213 187 189 172 192 226 203 214 261 303 232 247 245 267 291 269 172 139 136 131 118 112 124 136 144 152 155 161 161 155 156 153 148 150 157 160 155 152 154
297 194 319 323 335 46 235 209 204 201 192 197 206 259 328 6 6 358 324 324 7 72 79 83 103 121 128 139 147 151 156 162 157 154 153 151 151 152 157 160 159 155 151 148
318 220 208 233 262 286 286 276 234 196 216 229 227 252 294 330 339 340 342 329 335 76 88 82 97 115 131 141 153 155 154 155 151 149 152 155 162 162 162 158 156 157 154 151
354 256 254 265 276 275 277 274 246 225 222 220 240 250 264 281 283 299 330 341 340 356 53 74 89 85 116 110 117 141 145 147 149 149 153 163 162 151 147 153 156 155 155 156
336 268 279 277 272 268 286 286 261 247 241 238 255 265 277 294 316 343 333 312 306 310 313 333 4 51 141 141 140 126 132 141 143 149 156 152 142 144 151 156 154 152 155 155
276 246 289 281 296 303 286 281 257 247 240 223 242 259 309 315 301 261 237 229 261 292 306 312 327 20 118 133 136 139 138 131 133 138 143 144 142 149 159 153 149 155 160 157
228 224 239 285 359 236 250 301 310 268 252 260 287 304 293 283 302 332 335 177 313 338 356 351 18 40 42 58 81 98 112 120 125 131 136 137 138 145 145 147 154 157 159 160
208 198 202 223 256 283 318 345 343 298 293 347 313 320 335 346 25 10 13 22 18 18 26 27 35 56 62 62 74 94 95 101 112 125 136 139 145 148 142 145 154 157 153 157
184 164 158 189 213 264 308 323 318 254 300 352 344 331 340 18 7 310 358 26 37 48 55 55 57 67 65 48 75 98 98 99 109 134 143 142 146 150 150 153 151 146 146 157
13 20 216 225 246 284 319 322 343 87 308 336 343 341 353 350 297 331 22 42 52 55 56 60 64 61 49 46 81 90 87 84 82 93 99 103 116 137 142 137 136 138 139 134
266 306 238 180 234 292 334 1 20 317 328 346 353 360 23 29 32 38 48 53 56 55 55 61 65 53 41 50 79 79 68 67 80 88 89 87 85 102 114 115 115 124 132 128
326 270 234 191 221 312 342 358 350 353 350 354 1 3 32 51 47 45 48 51 50 53 54 60 72 62 47 44 66 75 57 68 80 79 79 82 80 80 98 113 118 113 118 127
328 346 4 331 320 343 358 7 6 6 8 7 12 18 35 58 62 59 56 53 49 47 50 56 66 64 51 43 49 60 52 62 80 79 73 77 82 77 74 82 105 119 133 135
315 336 348 314 323 343 1 3 360 7 18 27 31 34 44 62 63 61 56 51 51 50 48 53 60 61 50 44 44 43 47 61 70 72 71 71 74 80 73 65 64 85 96 151
348 344 338 295 317 317 321 339 357 13 16 23 36 39 41 57 63 59 54 50 52 52 51 53 53 55 48 46 43 37 43 59 67 64 59 63 70 71 72 72 52 46 55 52